Regional Weather Roundup
Issued by NWS

Home | Current Version | Previous Version | Text Only | Print | Product List | Glossary Off
Versions: 1 2 3 4 5 6 7 8 9 10 11 12 13 14 15 16 17 18 19 20 21 22 23 24 25 26 27 28 29 30 31 32 33 34 35 36 37 38 39 40 41 42 43 44 45 46 47 48 49 50

000
ASUS43 KLOT 030808
RWRIL

ILLINOIS REGIONAL WEATHER ROUNDUP
NATIONAL WEATHER SERVICE CHICAGO/ROMEOVILLE IL
300 AM CDT SUN MAY 03 2015

NOTE: "FAIR" INDICATES FEW OR NO CLOUDS BELOW 12,000 FEET WITH NO
SIGNIFICANT WEATHER AND/OR OBSTRUCTIONS TO VISIBILITY.

* THESE STATIONS ARE NOT UNDER NWS QUALITY CONTROL. THEY ALSO MAY NOT
  REPORT WEATHER SUCH AS PRECIPITATION OR FOG.

ILZ001-002-007-009-015-016-024-030900-
NORTHWEST ILLINOIS

CITY           SKY/WX    TMP DP  RH WIND       PRES   REMARKS
MOLINE         CLOUDY    61  48  62 VRB5      29.92F
STERLING*      MOCLDY    55  45  67 SE5       29.96R
SAVANNA*       CLOUDY    61  47  61 S7        29.92F
$$

ILZ003-004-008-010-011-017-018-030900-
NORTH CENTRAL ILLINOIS

CITY           SKY/WX    TMP DP  RH WIND       PRES   REMARKS
ROCKFORD       CLOUDY    59  44  57 S3        29.97F
FREEPORT*      CLOUDY    59  46  60 S7        29.96S
ROCHELLE*      CLOUDY    57  43  59 S7        29.96F
DE KALB*       LGT RAIN  56  43  61 S6        29.97F
PERU*          CLOUDY    60  42  51 S6        29.97S
$$

ILZ005-006-012>014-019>023-030900-
NORTHEAST ILLINOIS

CITY           SKY/WX    TMP DP  RH WIND       PRES   REMARKS
CHICAGO-OHARE  MOCLDY    61  40  45 SW8       29.96F
CHICAGO-MIDWAY MOCLDY    61  41  47 S7        29.97F
AURORA         MOCLDY    53  41  63 CALM      29.97F
LANSING*       PTCLDY    53  39  60 S5        29.99S
JOLIET*        MOCLDY    60  45  59 S3        29.97F
WAUKEGAN       PTCLDY    55  40  56 SW8       29.95S
DUPAGE AIRPORT MOCLDY    55  42  61 S3        29.97S
KANKAKEE*      PTCLDY    57  42  58 S8        30.00F
WHEELING       PTCLDY    54  41  61 S3        29.98S
MORRIS*        CLOUDY    58  43  58 S6        29.94F
ROMEOVILLE*    MOCLDY    55  42  61 S6        29.98S
NORTHERLY ISL    N/A     63  38  39 S7          N/A
$$

LMZ740>746-030900-
SOUTHERN LAKE MICHIGAN

STATION/POSITION SKY/WX   TEMP    WIND        PRES    VSBY  WAVE
                          AIR SEA DIR/SP/G                  HT/PER
                          (F)     (DEG/KT/KT) (MB)    (MI)  (FT/S)
HARRISON CRIB              66     200/ 20/ 23   N/A
BURNHAM HARBOR             63     210/  4/  8   N/A
CALUMET HARBOR             62     190/  3/  5   N/A
BURNS HARBOR               60     180/  9/ 12 1015.9F
MICHIGAN CITY              63     170/ 13/ 17   N/A
MICHIGAN CITY 6N           55 51  210/  6/  6   N/A           1
ST. JOSEPH                 54 49  220/  6/  6   N/A           1
$$

ILZ025>027-034>036-040-047-049-050-058-095>099-030900-
WEST-CENTRAL ILLINOIS

CITY           SKY/WX    TMP DP  RH WIND       PRES   REMARKS
QUINCY         PTCLDY    62  46  55 S8        29.94F
GALESBURG*     CLOUDY    58  49  71 SE5       29.94F
MACOMB*        PTCLDY    57  48  72 S7        29.97S
JACKSONVILLE*  MOCLDY    64  47  54 S9        29.97S
PITTSFIELD*    PTCLDY    60  49  67 S7        29.97S
$$

ILZ028>032-037-038-041>044-048-051>054-059>061-030900-
CENTRAL ILLINOIS

CITY           SKY/WX    TMP DP  RH WIND       PRES   REMARKS
PONTIAC        PTCLDY    60  45  57 S9        29.99S
BLOOMINGTON    MOCLDY    57  46  66 S9        30.01S
DECATUR        CLOUDY    62  45  53 S8        30.01F
PEORIA         CLOUDY    61  46  57 S5        29.98S
LACON*         MOCLDY    59  42  53 CALM      29.96S
LINCOLN*       CLOUDY    60  46  61 S6        29.97F
SPRINGFIELD    PTCLDY    63  45  51 S12       29.98F
TAYLORVILLE    MOCLDY    61  45  55 S8        30.00F
$$

ILZ033-039-045-046-055>057-062-063-030900-
EAST-CENTRAL ILLINOIS

CITY           SKY/WX    TMP DP  RH WIND       PRES   REMARKS
CHAMPAIGN      CLOUDY    62  45  53 S12       30.01F
DANVILLE*      MOCLDY    55  44  66 S5        30.00S
RANTOUL*       CLOUDY    60  45  57 S3        30.01S
MATTOON        CLOUDY    61  46  57 S7        30.02S
PARIS*         CLOUDY    58  49  70 S6        30.04S
$$

ILZ079-100>102-030900-
SOUTHWEST ILLINOIS

CITY           SKY/WX    TMP DP  RH WIND       PRES   REMARKS
ALTON          LGT RAIN  61  46  59 SE6       30.00F
BELLEVILLE     CLOUDY    59  51  74 CALM      30.00S
CAHOKIA*       CLOUDY    63  47  55 S5        30.00S
SPARTA*        CLOUDY    62  45  55 S6        30.03S
$$

ILZ064>066-069>071-074>076-080>082-084>086-088>090-092>094-030900-
SOUTH-CENTRAL ILLINOIS

CITY           SKY/WX    TMP DP  RH WIND       PRES   REMARKS
CARBONDALE     PTCLDY    54  49  83 CALM      30.04R
CAIRO*         CLEAR     53  50  89 S3        30.04S
EFFINGHAM*     CLOUDY    60  44  55 SE3       30.05S
MARION         PTCLDY    57  48  72 S3        30.05R
MT. VERNON     CLOUDY    55  50  82 CALM      30.05S
CENTRALIA*     CLOUDY    61  46  59 SE3       30.03S
SALEM*         RAIN      63  50  63 S7        30.04S
METROPOLIS*    PTCLDY    50  50 100 CALM      30.05R FOG
$$

ILZ067-068-072-073-078-083-087-091-030900-
SOUTHEAST ILLINOIS

CITY           SKY/WX    TMP DP  RH WIND       PRES   REMARKS
LAWRENCEVILLE  CLOUDY    57  50  77 S5        30.05S
FLORA*         CLOUDY    56  51  84 S3        30.05S
FAIRFIELD*     CLOUDY    59  50  71 CALM      30.04S
HARRISBURG*    PTCLDY    54  51  89 CALM      30.06R
ROBINSON*      CLOUDY    59  49  69 S3        30.06S
CARMI*         MOCLDY    55  48  77 CALM      30.05R
$$

ABBREVIATIONS USED IN REMARKS
   TC - TEMPERATURE IN CELSIUS
  WCI - WIND CHILL INDEX
   HX - HEAT INDEX
  VSB - VISIBILITY
$$



USA.gov is the U.S. government's official web portal to all federal, state and local government web resources and services.